Location: Lombard
(41.8800°N, 88.0078°W)
Time: 12:52:58
(UTC-06:00)

BlueWalker 3 - Pass Details

Date: 27 January 2026
Orbit: 450 x 461 km, 53.2° (Epoch: 11 February)

Event Time Altitude Azimuth Distance (km) Brightness Sun altitude
Rises 18:54:02 0° 294° (WNW) 2,456 6.4 -21.1°
Reaches altitude 10° 18:57:02 10° 321° (NW) 1,583 4.9 -21.6°
Enters shadow 18:58:47 14° 351° (N) 1,371 4.2 -21.9°
